Date,TemperatureHighF,TemperatureAvgF,TemperatureLowF,DewpointHighF,DewpointAvgF,DewpointLowF,HumidityHigh,HumidityAvg,HumidityLow,PressureMaxIn,PressureMinIn,WindSpeedMaxMPH,WindSpeedAvgMPH,GustSpeedMaxMPH,PrecipitationSumIn
2013-9-1,72.2,62.1,53.0,59.6,56.0,51.0,97,82,57,30.07,29.92,6,2,11,0.00
2013-9-2,84.7,64.6,46.9,65.6,55.8,45.8,97,76,47,30.08,29.88,8,2,14,0.00
2013-9-3,89.9,70.3,56.0,67.7,60.8,54.3,96,76,35,29.96,29.88,5,1,11,0.00
2013-9-4,81.5,68.7,55.8,63.0,56.9,51.0,91,68,44,30.12,29.96,8,4,16,0.00
2013-9-5,90.7,73.1,58.4,68.4,61.4,53.4,89,69,45,30.10,29.85,7,2,13,0.06
2013-9-6,92.2,75.6,59.8,70.7,65.7,58.8,97,75,43,29.90,29.79,6,2,12,0.00
2013-9-7,77.5,67.8,63.2,67.7,61.9,57.3,97,83,52,30.05,29.85,13,5,20,0.38
2013-9-8,81.2,67.5,59.3,70.1,63.7,57.8,100,88,64,29.99,29.71,7,1,14,0.15
2013-9-9,77.0,68.3,56.3,67.2,63.5,54.3,100,86,60,29.79,29.62,11,4,20,1.42
2013-9-10,80.1,65.7,51.0,62.3,56.3,50.9,100,76,41,29.98,29.78,11,3,18,0.01
2013-9-11,77.0,62.5,50.1,60.8,51.1,46.0,100,72,34,30.22,29.98,7,2,13,0.00
2013-9-12,72.7,58.1,40.8,56.6,48.5,39.8,97,74,40,30.33,30.19,4,1,8,0.00
2013-9-13,84.2,63.2,45.8,59.1,51.6,44.4,97,71,37,30.19,29.81,11,4,22,0.00
2013-9-14,73.1,61.9,56.6,63.1,55.8,50.4,93,81,65,30.05,29.73,14,3,23,0.00
2013-9-15,67.0,53.7,42.6,50.8,44.5,38.6,95,74,37,30.31,30.05,10,4,17,0.00
2013-9-16,73.5,56.3,40.5,56.3,49.2,38.7,100,79,52,30.27,29.90,17,7,28,0.00
2013-9-17,82.3,66.2,53.0,66.2,58.3,51.3,94,77,55,29.90,29.59,10,6,17,0.00
2013-9-18,77.7,66.6,59.0,66.7,62.0,57.6,97,86,65,29.69,29.48,11,2,20,0.01
2013-9-19,67.0,54.6,50.0,60.7,49.6,43.2,92,83,76,30.04,29.59,15,9,28,0.01
2013-9-20,64.5,50.6,33.1,47.7,41.1,31.8,97,73,42,30.07,29.95,11,3,18,0.00
2013-9-21,73.3,53.8,35.1,49.3,43.1,34.0,97,72,41,29.98,29.69,12,4,21,0.00
2013-9-22,82.0,62.4,41.5,64.0,53.4,39.8,97,74,48,29.69,29.35,8,3,14,0.00
2013-9-23,73.5,60.5,50.0,62.2,57.2,49.2,100,90,62,29.78,29.35,13,4,22,0.21
2013-9-24,76.0,57.9,43.0,52.9,46.7,41.4,100,72,31,29.93,29.78,5,2,11,0.01
2013-9-25,78.8,65.5,50.8,57.5,52.7,45.8,83,65,42,29.79,29.50,16,8,26,0.00
2013-9-26,67.3,59.0,52.0,58.8,52.4,43.3,97,79,59,29.86,29.44,9,5,19,0.08
2013-9-27,55.7,50.6,47.7,49.0,46.0,43.0,95,85,74,29.88,29.79,13,4,21,0.19
2013-9-28,63.7,51.5,40.8,46.7,42.7,37.8,95,75,44,29.83,29.73,12,3,22,0.01
2013-9-29,76.8,55.7,37.1,50.5,44.0,35.3,96,70,31,29.79,29.50,14,4,22,0.00
2013-9-30,78.4,59.3,39.8,50.8,46.1,37.3,93,66,32,29.59,29.38,21,4,34,0.01